Temperature
8 6 6 7 8 8 8 8 8 9 9 9 8 8 8 9 8 8 8 8 8 9 9 9 9 9 9 9 9 9 9 9 9 9 9 9 10 10 9 9 10 10 10 10
6 6 7 8 8 8 8 8 7 8 9 9 8 7 7 7 8 8 8 8 8 8 9 9 9 9 9 9 9 9 9 9 9 9 9 9 9 9 9 9 9 9 10 10
7 7 8 8 8 8 7 7 7 7 8 8 7 7 7 7 8 8 8 8 8 8 8 8 8 8 9 9 9 8 8 8 8 8 8 8 8 9 9 9 9 9 9 9
6 7 7 7 7 7 7 7 7 7 6 6 7 6 6 6 6 6 7 7 7 7 7 8 8 8 8 8 8 8 8 8 8 8 8 8 8 8 8 8 8 8 8 8
6 6 7 7 7 7 7 7 7 7 6 5 6 5 6 6 6 6 6 6 7 7 7 7 7 7 7 7 7 7 7 7 7 7 7 7 7 7 7 7 8 8 8 8
6 6 6 6 7 7 7 6 6 5 4 5 5 5 5 4 5 5 5 6 6 6 7 7 7 7 7 7 7 7 7 7 7 7 7 7 7 7 7 7 7 7 7 7
5 6 6 6 6 6 6 5 5 5 4 5 5 5 5 5 5 5 5 6 6 6 6 6 6 6 6 6 6 6 6 6 6 6 6 6 6 6 6 6 7 7 7 7
5 5 5 5 5 5 5 5 5 5 4 4 5 5 5 5 5 5 6 6 6 6 6 6 6 5 5 5 5 5 5 6 6 6 6 6 6 6 6 6 6 6 6 6
4 4 5 5 5 5 5 4 5 4 4 4 4 4 4 5 4 4 4 5 5 5 5 5 5 5 5 5 5 5 5 5 5 5 5 5 5 5 5 5 5 5 5 6
4 3 4 5 5 5 5 4 3 4 4 4 4 4 4 4 4 4 3 4 4 4 5 5 4 4 4 4 4 4 4 4 4 4 4 5 5 5 5 5 5 5 5 5
3 3 3 3 3 4 4 4 3 3 3 4 4 4 4 4 4 3 3 4 4 4 4 4 4 4 4 3 3 3 3 4 4 4 4 4 4 4 4 4 4 4 4 4
2 1 2 2 3 3 3 3 2 3 3 2 2 4 4 3 3 3 3 4 4 4 4 3 3 3 3 3 3 3 3 3 3 3 3 3 3 4 4 4 4 4 4 4
2 1 2 3 3 2 2 2 2 2 1 1 2 4 3 2 3 3 3 3 3 3 3 3 3 3 3 3 3 2 2 2 2 3 3 3 3 3 3 3 3 3 3 3
2 0 2 3 3 2 2 2 1 1 1 1 1 3 3 2 2 2 3 3 3 3 3 3 3 3 2 2 2 2 2 2 2 2 2 2 2 2 2 2 2 2 2 2
2 0 0 1 1 1 1 1 1 1 1 1 2 2 2 2 2 2 2 2 2 2 2 2 2 2 2 2 2 1 1 1 1 1 2 2 2 2 2 2 2 1 1 1
0 0 0 0 1 1 1 1 1 1 1 1 1 1 2 2 2 2 2 2 2 2 2 2 2 2 2 1 1 1 1 1 1 1 1 1 1 1 1 1 1 1 1 1
-1 -1 0 0 0 1 1 1 1 1 -0 0 1 2 1 1 1 2 2 2 2 2 2 2 1 1 1 1 1 1 1 0 0 0 0 0 0 0 0 0 0 0 0 0
-1 -1 -1 -1 0 1 2 1 0 1 1 -0 1 1 1 1 2 2 2 2 2 2 2 2 1 1 1 1 0 0 0 0 -0 -0 0 -0 -0 -0 -0 -0 -0 -0 -0 -0
-1 -0 -1 -1 -1 0 1 1 0 0 1 0 0 0 1 1 1 1 2 2 2 2 2 1 1 1 0 0 -0 -0 -0 -0 -1 -0 -0 -0 -1 -1 -1 -0 -1 -1 -1 -1
-1 -1 -1 -2 -0 1 2 1 1 1 1 1 0 -0 0 0 -1 0 2 2 2 1 1 1 1 0 0 -0 -0 -1 -1 -1 -1 -1 -1 -1 -1 -1 -1 -1 -1 -1 -1 -1
-2 -2 -1 -1 -1 0 1 1 1 1 2 2 1 1 1 0 1 2 2 1 1 1 1 0 0 -0 -0 -1 -1 -1 -1 -1 -1 -1 -1 -1 -1 -1 -1 -1 -2 -2 -2 -2
-2 -2 -2 -2 -1 0 1 -0 0 1 2 2 2 2 1 2 2 1 1 1 1 0 0 -0 -0 -1 -1 -1 -1 -1 -1 -2 -2 -2 -2 -2 -2 -2 -2 -2 -2 -2 -2 -2
-2 -1 -2 -1 0 1 1 1 2 2 2 2 2 2 1 1 1 1 1 0 0 -0 -0 -1 -1 -1 -1 -2 -2 -2 -2 -2 -2 -2 -2 -2 -2 -2 -2 -2 -2 -3 -3 -3
-3 -2 -2 -2 -1 -0 1 2 2 2 2 2 2 2 1 1 1 0 0 -0 -0 -1 -1 -1 -1 -1 -2 -2 -2 -2 -2 -2 -3 -2 -3 -3 -3 -3 -3 -3 -3 -3 -3 -3
-2 -3 -3 -2 -2 -1 1 2 2 2 2 1 1 1 1 0 0 -0 -0 -1 -1 -1 -1 -2 -2 -2 -2 -2 -2 -3 -3 -3 -3 -3 -3 -3 -3 -3 -3 -3 -4 -4 -4 -4
-3 -3 -2 -1 -0 -1 1 2 2 2 1 1 1 1 0 -0 -0 -1 -1 -1 -1 -2 -2 -2 -2 -2 -2 -3 -3 -3 -3 -3 -3 -3 -3 -3 -3 -4 -4 -4 -4 -4 -4 -4
Wind_Speed
2 3 3 5 6 4 3 3 3 4 2 1 5 7 7 5 3 4 3 3 3 3 3 1 1 2 2 2 3 3 2 2 2 1 1 1 1 1 1 2 3 4 4 6
4 1 5 3 2 2 2 1 1 3 2 1 3 7 7 6 6 5 6 5 4 2 0 1 1 1 2 2 2 3 2 2 1 1 1 1 2 1 1 2 2 3 4 4
4 3 2 2 2 2 2 4 3 3 4 3 1 5 4 3 2 2 2 3 3 3 3 1 1 2 2 2 2 2 1 2 2 2 2 3 3 2 2 1 0 1 3 3
1 2 0 2 1 2 3 3 3 2 0 3 0 4 6 4 3 3 3 2 3 2 2 2 2 2 1 1 1 2 2 2 2 2 3 3 3 2 1 1 1 1 2 3
1 0 1 2 2 3 3 1 1 1 2 2 2 3 7 2 3 4 4 3 3 3 3 2 2 2 2 2 2 2 2 2 2 2 2 3 2 2 1 1 1 1 1 2
1 1 1 2 1 2 2 3 3 3 2 3 5 5 6 3 4 3 2 2 2 2 2 2 1 2 2 2 2 2 2 2 2 2 2 2 2 2 2 1 1 0 0 1
2 2 1 1 2 2 4 4 2 3 1 6 3 4 7 5 3 3 4 3 1 1 1 1 2 2 2 2 2 2 2 2 2 1 1 2 2 2 2 2 1 1 0 1
2 3 2 1 2 3 3 5 6 5 5 4 3 6 5 3 1 1 2 2 1 1 1 1 2 2 1 1 1 1 1 1 2 1 0 0 1 1 1 2 2 2 2 2
4 3 2 1 1 4 3 3 4 4 1 3 5 5 5 1 2 2 1 2 1 0 0 1 1 2 1 1 0 0 1 1 1 2 1 0 0 0 1 1 1 1 1 1
4 2 3 2 2 1 2 4 3 4 3 4 5 5 4 4 3 2 1 1 1 0 0 0 0 1 1 1 0 1 1 1 1 1 1 0 0 1 1 1 1 1 1 1
2 3 2 1 3 4 3 2 2 3 4 4 4 6 4 5 5 4 4 3 3 2 1 1 0 0 0 0 1 1 1 1 1 2 2 1 1 1 0 1 2 2 2 2
3 3 2 5 3 2 4 5 5 4 4 4 3 7 3 2 2 3 3 3 2 2 1 1 0 0 1 1 1 1 1 1 1 2 2 2 2 1 1 2 2 2 2 2
4 4 1 4 2 1 2 2 4 3 3 4 5 7 2 2 2 2 3 3 2 2 1 0 0 0 0 1 1 1 1 2 2 2 2 3 2 2 2 3 3 3 3 3
3 3 6 8 5 3 4 4 4 4 4 5 8 9 7 6 6 4 3 3 2 2 2 1 1 1 1 1 1 1 2 2 2 2 2 3 3 3 3 3 3 3 3 3
3 4 5 6 5 4 6 8 7 9 8 9 9 10 11 8 7 5 4 3 2 2 2 2 2 2 2 2 2 2 2 2 2 2 3 4 4 3 3 3 3 3 3 4
3 3 2 4 5 5 7 9 10 11 9 10 10 13 10 7 4 5 5 4 4 5 5 4 3 3 3 3 3 3 3 3 2 3 4 4 3 3 3 3 3 3 3 3
4 4 2 4 4 4 8 10 11 8 8 9 12 12 6 5 6 7 7 6 7 6 6 5 5 5 5 4 4 4 4 3 3 4 4 4 4 4 4 4 3 4 4 3
6 5 3 2 1 6 8 4 7 8 10 10 8 7 7 8 7 6 6 6 6 6 6 5 5 4 4 3 3 3 3 3 3 4 4 4 4 4 4 4 4 4 4 4
5 6 3 2 4 8 7 5 6 7 9 9 11 9 6 3 1 4 5 5 6 6 6 5 5 4 3 3 3 2 3 3 4 4 5 5 4 5 4 4 5 4 4 4
3 4 4 4 4 7 7 3 4 3 6 6 8 8 6 2 3 6 4 3 4 4 4 4 3 3 3 4 3 3 3 4 5 5 5 5 4 5 5 5 5 4 4 4
3 3 6 6 6 8 7 3 5 4 7 4 6 7 7 7 8 6 4 4 4 4 4 3 3 3 4 4 3 4 4 5 5 4 4 4 4 5 5 4 4 4 4 4
8 6 6 6 6 9 5 6 7 8 3 3 4 5 6 6 6 5 5 5 4 4 4 3 3 4 4 3 3 4 6 5 4 4 4 5 4 4 4 4 4 4 4 4
8 9 7 9 9 5 6 7 6 4 4 4 4 5 5 5 5 5 5 5 5 5 4 4 4 4 4 4 4 6 6 4 3 3 4 4 4 4 3 4 4 4 3 3
5 4 5 6 9 7 7 6 5 5 6 5 5 5 5 6 6 6 5 5 5 5 5 4 4 4 5 5 5 6 5 4 4 4 4 4 3 3 3 3 3 4 4 4
6 6 5 7 7 6 7 9 8 6 5 5 4 4 5 6 6 6 5 6 5 5 4 4 5 6 6 5 5 5 5 4 4 4 4 4 3 3 3 3 4 4 5 5
7 8 8 10 8 7 7 6 6 6 6 6 5 4 4 5 6 5 5 5 5 5 4 4 5 6 6 6 6 5 5 5 4 4 4 3 3 3 3 3 4 6 6 9
Wind_Direction
62 88 185 211 201 196 175 177 230 253 262 209 232 253 260 255 240 232 231 221 213 224 231 204 175 139 106 96 92 93 90 76 89 88 112 123 135 135 124 97 109 119 132 138
61 243 238 225 195 172 169 179 261 300 323 242 250 269 265 248 235 217 209 215 216 222 253 88 116 121 126 124 103 92 87 91 104 92 128 143 151 128 112 90 86 125 118 132
170 236 245 170 148 168 214 194 208 249 330 342 308 296 265 266 240 226 226 215 206 196 191 172 119 96 82 85 105 118 103 95 81 70 82 85 73 63 56 51 82 77 124 127
194 270 134 132 197 176 227 222 205 214 75 284 171 277 270 247 256 244 246 244 231 216 203 183 153 124 115 98 72 101 109 94 78 86 102 114 127 137 193 194 168 59 79 94
235 273 129 180 221 182 208 224 199 218 186 291 251 226 280 256 244 255 246 238 227 215 202 171 150 145 124 102 94 73 71 69 67 89 102 118 128 141 119 84 86 70 39 60
249 279 173 192 208 167 152 56 34 42 86 260 227 198 273 237 228 244 248 240 238 225 196 161 125 102 86 72 73 78 71 47 54 87 101 110 134 139 119 96 114 80 350 3
336 321 327 87 98 46 92 99 40 352 319 248 232 206 251 255 235 211 210 227 245 186 150 138 110 93 81 70 61 69 91 51 38 78 105 140 152 165 176 182 185 183 240 293
167 269 248 143 157 179 176 152 167 200 225 274 291 235 254 280 303 151 175 185 127 108 132 156 160 146 130 85 53 53 67 57 38 37 16 126 163 178 202 207 205 211 222 237
177 235 304 216 146 147 155 186 178 147 198 266 266 281 301 265 10 38 79 107 109 101 121 131 151 145 147 143 143 136 103 52 37 26 14 80 33 208 212 208 215 228 244 248
157 209 283 305 53 21 159 152 120 149 181 247 275 264 248 245 237 240 246 262 254 242 122 75 118 161 162 159 13 59 90 89 356 -0 354 35 290 245 245 221 214 224 238 246
136 162 299 347 195 196 157 158 161 165 181 187 250 263 229 214 215 219 231 245 244 225 211 226 277 169 125 55 35 38 49 43 5 352 351 337 304 304 292 260 249 240 241 231
151 137 234 253 261 240 196 192 169 180 227 204 216 265 286 208 212 203 234 254 240 224 214 201 220 90 81 26 356 339 337 344 327 333 336 320 297 303 288 273 267 255 249 246
142 133 85 332 311 318 229 213 186 165 160 193 215 259 318 2 334 280 243 243 240 226 197 180 158 58 272 268 285 297 309 307 315 328 324 321 302 285 278 277 277 269 257 254
134 159 188 208 221 198 230 237 202 171 199 224 230 252 278 292 289 287 269 251 236 216 197 209 244 279 287 283 274 274 290 298 309 315 307 299 292 273 271 277 275 272 265 252
138 197 219 244 246 231 235 237 221 217 216 220 242 247 258 255 255 257 255 247 239 238 244 242 251 268 279 287 291 291 292 298 305 308 301 291 294 286 282 282 276 272 268 261
141 181 214 263 255 250 262 249 233 236 235 238 255 264 262 255 245 246 242 233 236 240 241 242 248 254 259 263 267 273 284 290 291 285 284 290 296 295 283 280 280 277 270 263
169 161 177 256 284 308 270 237 220 219 218 210 234 248 253 249 238 233 233 234 237 239 236 239 242 240 245 250 254 257 268 276 280 280 283 288 288 288 280 281 278 274 268 262
173 175 180 232 28 244 246 227 203 216 236 223 232 245 238 242 243 233 222 223 230 227 231 241 243 247 248 251 257 265 270 272 269 276 280 279 280 284 280 275 271 269 265 260
180 169 165 177 238 271 280 237 193 205 254 226 226 240 244 251 292 270 234 217 219 223 229 234 233 236 245 253 257 264 275 272 267 269 272 275 272 276 275 274 273 274 267 266
155 157 166 178 211 247 252 229 183 141 275 234 209 221 226 176 238 262 245 236 244 239 233 233 230 229 238 247 240 246 261 265 265 269 272 271 266 268 266 266 270 273 268 263
161 180 199 205 230 260 251 208 136 176 246 239 204 211 204 203 225 244 238 242 240 239 240 235 230 237 244 245 238 247 257 259 263 272 276 272 268 265 261 265 266 268 270 267
179 179 195 185 217 250 210 152 188 222 242 218 208 210 213 231 244 244 241 241 242 245 248 238 237 252 256 248 236 249 257 260 264 270 275 276 275 273 271 266 270 266 262 260
199 193 190 199 218 243 190 205 227 217 225 230 219 222 216 229 239 245 243 238 240 241 244 240 233 251 263 255 235 244 257 259 259 267 272 277 280 279 275 264 267 267 256 255
240 197 195 243 257 252 246 248 251 236 238 241 230 223 213 226 237 242 245 246 244 246 240 236 234 248 262 259 248 243 252 247 239 254 263 268 273 279 278 272 261 256 254 253
215 184 206 247 263 277 254 235 239 242 243 243 240 226 217 218 234 237 242 247 248 253 250 236 233 245 257 261 259 254 248 236 239 250 254 263 264 262 270 272 261 258 250 251
203 194 198 230 224 215 246 239 224 230 238 233 230 241 231 217 229 236 244 246 245 247 248 247 247 252 259 259 260 258 248 230 232 246 249 252 258 263 268 276 286 283 277 281
Height
1496 1501 1504 1502 1501 1501 1502 1504 1505 1503 1500 1501 1500 1499 1497 1495 1495 1495 1495 1495 1495 1495 1496 1496 1496 1496 1496 1496 1496 1496 1497 1497 1498 1498 1498 1499 1500 1501 1503 1504 1505 1507 1508 1510
1501 1503 1499 1498 1499 1500 1501 1505 1506 1504 1500 1501 1501 1499 1496 1494 1493 1493 1493 1493 1492 1493 1493 1493 1493 1493 1494 1494 1494 1495 1495 1495 1496 1496 1497 1498 1498 1499 1501 1502 1503 1505 1506 1507
1499 1500 1497 1498 1499 1500 1503 1506 1506 1505 1502 1500 1502 1500 1496 1492 1491 1491 1491 1491 1491 1490 1490 1491 1491 1491 1491 1492 1492 1493 1494 1494 1494 1495 1495 1496 1497 1497 1499 1500 1501 1502 1503 1504
1500 1498 1497 1498 1500 1500 1503 1501 1502 1503 1507 1510 1506 1509 1496 1493 1492 1490 1490 1489 1489 1489 1489 1489 1489 1489 1490 1490 1492 1493 1493 1493 1493 1494 1494 1494 1495 1495 1496 1497 1498 1499 1500 1501
1500 1498 1498 1499 1499 1499 1501 1499 1501 1503 1507 1510 1508 1510 1499 1493 1492 1490 1488 1488 1487 1487 1488 1488 1488 1488 1489 1490 1491 1491 1492 1492 1492 1493 1493 1493 1493 1494 1495 1496 1496 1496 1498 1498
1499 1497 1497 1497 1497 1498 1499 1501 1503 1507 1511 1513 1506 1509 1499 1496 1490 1488 1487 1486 1485 1486 1486 1486 1487 1488 1488 1489 1489 1490 1490 1491 1491 1491 1491 1491 1492 1492 1492 1493 1493 1494 1495 1495
1501 1499 1497 1497 1498 1499 1500 1507 1515 1515 1518 1511 1503 1503 1497 1489 1486 1486 1485 1485 1485 1485 1485 1485 1485 1485 1486 1487 1487 1488 1489 1489 1489 1489 1489 1489 1490 1490 1490 1491 1491 1492 1492 1492
1503 1503 1498 1497 1498 1500 1501 1505 1513 1516 1516 1511 1503 1501 1494 1487 1485 1483 1484 1484 1484 1484 1484 1484 1484 1484 1485 1485 1486 1486 1486 1487 1487 1487 1487 1488 1488 1488 1488 1488 1489 1489 1489 1490
1502 1502 1498 1496 1497 1498 1501 1504 1504 1511 1514 1514 1506 1499 1491 1486 1485 1484 1483 1483 1483 1483 1483 1484 1484 1484 1484 1484 1484 1485 1485 1485 1485 1485 1485 1485 1485 1485 1485 1486 1486 1487 1487 1487
1499 1504 1500 1497 1497 1498 1499 1501 1507 1510 1512 1509 1503 1500 1494 1487 1485 1484 1484 1482 1482 1482 1482 1483 1483 1483 1483 1483 1483 1483 1483 1483 1483 1483 1483 1483 1483 1483 1483 1483 1483 1483 1484 1484
1498 1503 1503 1501 1500 1500 1501 1503 1505 1508 1509 1509 1505 1496 1484 1483 1482 1483 1483 1482 1482 1481 1481 1481 1481 1482 1482 1482 1482 1482 1481 1481 1481 1481 1481 1481 1481 1481 1481 1481 1480 1480 1480 1480
1498 1504 1507 1503 1499 1498 1498 1499 1503 1506 1507 1509 1508 1497 1481 1481 1480 1481 1481 1482 1481 1481 1480 1480 1480 1480 1480 1480 1480 1480 1479 1479 1478 1478 1478 1477 1478 1478 1478 1477 1477 1477 1477 1477
1497 1503 1507 1503 1503 1501 1499 1498 1500 1503 1507 1509 1506 1493 1481 1480 1480 1480 1480 1480 1480 1479 1479 1479 1479 1479 1478 1478 1477 1477 1476 1476 1476 1475 1475 1474 1474 1474 1473 1473 1473 1473 1473 1473
1494 1501 1502 1499 1495 1497 1498 1498 1498 1501 1505 1504 1498 1489 1482 1481 1480 1479 1479 1479 1478 1478 1478 1477 1477 1477 1476 1476 1475 1475 1474 1473 1473 1472 1471 1470 1470 1470 1470 1469 1469 1469 1469 1469
1493 1499 1498 1496 1494 1495 1494 1494 1495 1496 1496 1496 1488 1486 1479 1478 1478 1477 1477 1477 1476 1476 1476 1475 1475 1474 1474 1473 1473 1472 1471 1471 1470 1468 1467 1466 1466 1466 1466 1465 1465 1465 1465 1464
1493 1497 1497 1496 1492 1492 1491 1488 1489 1489 1489 1488 1486 1481 1474 1474 1475 1475 1474 1474 1474 1474 1473 1473 1473 1472 1471 1471 1470 1469 1468 1467 1466 1465 1464 1463 1462 1461 1461 1461 1460 1460 1460 1459
1493 1496 1497 1496 1493 1490 1488 1481 1481 1482 1481 1481 1480 1474 1471 1472 1471 1471 1471 1471 1471 1471 1470 1470 1470 1469 1468 1468 1467 1466 1465 1464 1463 1461 1460 1459 1458 1457 1456 1456 1455 1455 1454 1454
1490 1493 1497 1497 1496 1493 1475 1471 1472 1474 1472 1472 1470 1468 1467 1467 1466 1466 1467 1467 1467 1467 1467 1467 1466 1465 1465 1464 1463 1462 1461 1460 1458 1457 1456 1455 1454 1452 1452 1451 1450 1450 1449 1449
1484 1489 1494 1498 1496 1484 1473 1468 1469 1471 1467 1464 1465 1464 1463 1463 1464 1463 1463 1463 1463 1464 1463 1463 1462 1462 1461 1460 1459 1458 1457 1456 1454 1453 1452 1451 1449 1448 1447 1446 1446 1445 1445 1444
1483 1486 1492 1495 1491 1483 1467 1463 1462 1466 1466 1458 1458 1459 1460 1461 1465 1461 1459 1460 1460 1460 1459 1459 1458 1458 1457 1456 1455 1454 1452 1451 1450 1448 1447 1446 1445 1444 1443 1442 1441 1440 1440 1439
1485 1487 1488 1489 1488 1474 1462 1461 1463 1469 1461 1453 1453 1454 1455 1456 1457 1456 1455 1456 1456 1455 1455 1455 1454 1453 1452 1452 1451 1449 1448 1447 1446 1444 1443 1442 1441 1440 1439 1438 1437 1436 1435 1435
1478 1482 1485 1485 1484 1471 1457 1459 1460 1455 1451 1450 1450 1451 1452 1452 1452 1452 1451 1451 1451 1451 1451 1450 1449 1448 1448 1447 1446 1444 1443 1442 1441 1440 1439 1438 1436 1435 1435 1434 1433 1432 1431 1431
1470 1468 1469 1468 1462 1453 1451 1451 1450 1449 1449 1448 1448 1448 1448 1448 1448 1447 1447 1447 1447 1446 1446 1445 1445 1444 1443 1442 1441 1440 1439 1438 1437 1435 1434 1433 1432 1431 1430 1429 1428 1428 1428 1427
1462 1460 1461 1460 1452 1449 1448 1447 1447 1447 1446 1445 1445 1445 1445 1444 1444 1443 1443 1442 1442 1442 1441 1441 1440 1439 1438 1437 1437 1435 1434 1433 1432 1431 1430 1429 1428 1427 1426 1426 1425 1424 1424 1423
1454 1456 1456 1454 1447 1445 1442 1442 1442 1442 1442 1442 1442 1442 1441 1440 1440 1439 1439 1438 1438 1437 1437 1436 1435 1434 1434 1433 1432 1431 1430 1429 1428 1427 1426 1426 1424 1423 1422 1422 1421 1420 1420 1419
1446 1447 1449 1444 1439 1440 1437 1437 1438 1438 1438 1438 1437 1437 1437 1437 1436 1435 1435 1435 1434 1433 1433 1432 1431 1430 1429 1428 1427 1426 1425 1424 1423 1423 1422 1422 1421 1420 1419 1418 1417 1417 1416 1415